MOLNIYA 1-75

Last updated on Jan. 25, 2020, 4:43 a.m. UTC

1 19807U 89014A   20024.02607086 -.00000529  00000-0 -39619-2 0  9992
2 19807  64.2413  29.2929 7044527 272.2626  15.7671  2.00205408226521
UTC
Height (km)
Latitude
Longitude
Inclination
Orbital Period
UTC large
Height (km)
Speed (km/s)
/
Latitude / Longitude
Inclination (degrees)
Orbital Period (minutes)
Azimuth
Elevation
Range (km)
Doppler Factor
iOS Compass Heading
iOS Angle

Next 30 passes for location: Hong Kong

Rise time Rise Azimuth (degrees) Set time Set Azimuth (degrees) Duration Max altitude (degrees)

No matching passes for this satellites